Location: Northcutt
(34.7304°N, 84.4305°W)
Time: 09:07:51
(UTC+00:00)

A-11 Canister half - Pass Details

Date: 06 October 2022
Orbit: 1524 x 1685 km, 47.3° (Epoch: 30 November)

Event Time Altitude Azimuth Distance (km) Brightness Sun altitude
Rises 20:02:18 0° 245° (WSW) 4,679 12.5 35.6°
Reaches altitude 10° 20:05:22 10° 248° (WSW) 3,689 12.3 35.1°
Maximum altitude 20:14:36 67° 330° (NNW) 1,633 9.7 33.6°
Drops below altitude 10° 20:23:55 10° 53° (NE) 3,720 10.6 32.0°
Sets 20:27:02 0° 56° (NE) 4,719 11.0 31.5°
